Decatur, AL

7:50 AM CDT on September 28, 2016 (GMT -0500)
Pryor Regional

Weather History for KDCU - March, 2014

Change the Weather History Date:

Monday, March 10, 2014

  Actual Average Record
Temperature  
Mean Temperature 57 °F -  
Max Temperature 70 °F 62 °F 81 °F (1974)
Min Temperature 44 °F 37 °F 22 °F (1984)
Degree Days  
Heating Degree Days 8    
Growing Degree Days 7 (Base 50)    
Moisture  
Dew Point 44 °F    
Average Humidity 70    
Maximum Humidity 96    
Minimum Humidity 33    
Precipitation  
Precipitation 0.00 in - - ()
Sea Level Pressure  
Sea Level Pressure 30.05 in    
Wind  
Wind Speed 3 mph (WSW)    
Max Wind Speed 13 mph    
Max Gust Speed -    
Visibility 7 miles    
Events      
Averages and records for this station are not official NWS values.
T = Trace of Precipitation, MM = Missing Value Source: NWS Daily Summary

Daily Weather History Graph

Daily Weather History Graph

Search for Another Location

Airport or City:

Trip Planner

Search our weather history database for the weather conditions in past years. The results will help you decide how hot, cold, wet, or windy it might be!

Date:

Astronomy

Mar. 10, 2014 Rise Set
Actual Time 7:05 AM CDT 6:51 PM CDT
Civil Twilight 6:40 AM CDT 7:16 PM CDT
Nautical Twilight 6:10 AM CDT 7:45 PM CDT
Astronomical Twilight 5:41 AM CDT 8:15 PM CDT
Moon 1:44 PM CDT (3/10) 3:06 AM CDT (3/10)
Length of Visible Light 12h 36m
Length of Day
11h 46m
Waxing Gibbous, 70% of the Moon is Illuminated
Mar 10
Waxing Gibbous
Mar 16
Full
Mar 23
Last Quarter
Mar 30
New
Apr 7
First Quarter

Hourly Weather History & Observations

Time (CDT) Temp. Dew Point Humidity Pressure Visibility Wind Dir Wind Speed Gust Speed Precip Events Conditions
12:53 AM 44.1 °F 41.0 °F 89% 30.16 in 8.0 mi Calm Calm - N/A   Clear
1:53 AM 45.0 °F 42.1 °F 90% 30.14 in 7.0 mi Calm Calm - N/A   Overcast
2:53 AM 46.9 °F 44.1 °F 90% 30.12 in 7.0 mi Calm Calm - N/A   Overcast
3:53 AM 48.0 °F 45.0 °F 89% 30.10 in 7.0 mi Calm Calm - N/A   Overcast
4:53 AM 48.9 °F 45.0 °F 86% 30.10 in 6.0 mi Calm Calm - N/A   Overcast
5:53 AM 45.0 °F 43.0 °F 93% 30.11 in 5.0 mi Calm Calm - N/A   Partly Cloudy
6:13 AM 44.6 °F 42.8 °F 93% 30.12 in 6.0 mi Calm Calm - N/A   Mostly Cloudy
6:53 AM 46.9 °F 45.0 °F 93% 30.12 in 5.0 mi Calm Calm - N/A   Overcast
7:04 AM 46.4 °F 44.6 °F 93% 30.12 in 6.0 mi Calm Calm - N/A   Overcast
7:53 AM 44.1 °F 43.0 °F 96% 30.12 in 2.0 mi Calm Calm - N/A   Clear
8:05 AM 46.4 °F 44.6 °F 93% 30.13 in 4.0 mi Calm Calm - N/A   Clear
8:53 AM 52.0 °F 43.0 °F 71% 30.12 in 5.0 mi West 8.1 mph - N/A   Haze
9:53 AM 54.0 °F 44.1 °F 69% 30.12 in 5.0 mi West 9.2 mph - N/A   Haze
10:53 AM 57.0 °F 44.1 °F 62% 30.11 in 6.0 mi WNW 8.1 mph - N/A   Haze
11:53 AM 61.0 °F 46.0 °F 58% 30.09 in 7.0 mi West 10.4 mph - N/A   Clear
12:53 PM 62.1 °F 46.0 °F 56% 30.06 in 7.0 mi Variable 5.8 mph - N/A   Clear
1:53 PM 64.9 °F 46.0 °F 50% 30.01 in 8.0 mi Variable 5.8 mph - N/A   Clear
2:53 PM 68.0 °F 44.1 °F 42% 29.98 in 10.0 mi Variable 6.9 mph - N/A   Clear
3:53 PM 69.1 °F 42.1 °F 38% 29.95 in 10.0 mi West 6.9 mph - N/A   Clear
4:53 PM 70.0 °F 39.9 °F 33% 29.93 in 10.0 mi West 12.7 mph - N/A   Clear
5:53 PM 69.1 °F 41.0 °F 36% 29.92 in 10.0 mi WSW 10.4 mph - N/A   Clear
6:53 PM 64.0 °F 41.0 °F 43% 29.93 in 10.0 mi WSW 10.4 mph - N/A   Clear
7:53 PM 62.1 °F 42.1 °F 48% 29.94 in 10.0 mi SW 4.6 mph - N/A   Clear
8:53 PM 60.1 °F 43.0 °F 53% 29.94 in 10.0 mi SSW 8.1 mph - N/A   Clear
9:53 PM 54.0 °F 44.1 °F 69% 29.94 in 10.0 mi South 4.6 mph - N/A   Clear
10:53 PM 52.0 °F 43.0 °F 71% 29.94 in 10.0 mi Calm Calm - N/A   Clear
11:53 PM 53.1 °F 45.0 °F 74% 29.93 in 10.0 mi Calm Calm - N/A   Clear